Woodward, OK

12:25 AM CST on February 08, 2016 (GMT -0600)
West Woodward

Weather History for KWWR - July, 2013

Change the Weather History Date:

Monday, July 8, 2013

  Actual Average (KGAG) Record (KGAG)
Temperature  
Mean Temperature 88 °F -  
Max Temperature 100 °F 95 °F 105 °F (1978)
Min Temperature 77 °F 69 °F 52 °F (1952)
Cooling Degree Days 24    
Growing Degree Days 38 (Base 50)    
Moisture  
Dew Point 55 °F    
Average Humidity 34    
Maximum Humidity 57    
Minimum Humidity 18    
Precipitation  
Precipitation 0.00 in - - ()
Sea Level Pressure  
Sea Level Pressure 30.05 in    
Wind  
Wind Speed 14 mph (South)    
Max Wind Speed 22 mph    
Max Gust Speed 26 mph    
Visibility 10 miles    
Events      
Averages and records for this station are not official NWS values.
T = Trace of Precipitation, MM = Missing Value Source: NWS Daily Summary

Daily Weather History Graph

Daily Weather History Graph

Search for Another Location

Airport or City:

Trip Planner

Search our weather history database for the weather conditions in past years. The results will help you decide how hot, cold, wet, or windy it might be!

Date:

Astronomy

Jul. 08, 2013 Rise Set
Actual Time 6:27 AM CDT 8:58 PM CDT
Civil Twilight 5:57 AM CDT 9:28 PM CDT
Nautical Twilight 5:20 AM CDT 10:05 PM CDT
Astronomical Twilight 4:38 AM CDT 10:47 PM CDT
Moon 6:55 AM CDT 9:05 PM CDT
Length of Visible Light 15h 31m
Length of Day
14h 31m
New Moon, 0% of the Moon is Illuminated
Jul 8
New Moon
Jul 15
First Quarter
Jul 22
Full
Jul 29
Last Quarter
Aug 6
New

Hourly Weather History & Observations

Time (CDT) Temp. Heat Index Dew Point Humidity Pressure Visibility Wind Dir Wind Speed Gust Speed Precip Events Conditions
12:15 AM 82.4 °F 81.7 °F 55.4 °F 39% 30.03 in 10.0 mi SSE 16.1 mph 21.9 mph N/A   Clear
12:35 AM 82.4 °F 81.7 °F 55.4 °F 39% 30.04 in 10.0 mi SSE 15.0 mph 21.9 mph N/A   Clear
12:55 AM 82.4 °F 81.7 °F 55.4 °F 39% 30.04 in 10.0 mi SSE 15.0 mph 20.7 mph N/A   Clear
1:15 AM 82.4 °F 81.7 °F 55.4 °F 39% 30.05 in 10.0 mi SSE 16.1 mph 19.6 mph N/A   Clear
1:35 AM 80.6 °F 80.5 °F 55.4 °F 42% 30.05 in 10.0 mi SSE 13.8 mph - N/A   Clear
1:55 AM 80.6 °F 80.5 °F 55.4 °F 42% 30.05 in 10.0 mi South 15.0 mph - N/A   Clear
2:15 AM 80.6 °F 80.5 °F 55.4 °F 42% 30.05 in 10.0 mi South 12.7 mph 18.4 mph N/A   Clear
2:35 AM 80.6 °F 80.5 °F 55.4 °F 42% 30.05 in 10.0 mi South 13.8 mph - N/A   Clear
2:55 AM 80.6 °F 80.5 °F 55.4 °F 42% 30.05 in 10.0 mi South 15.0 mph - N/A   Clear
3:15 AM 78.8 °F - 55.4 °F 44% 30.05 in 10.0 mi South 15.0 mph - N/A   Clear
3:35 AM 78.8 °F - 55.4 °F 44% 30.05 in 10.0 mi South 10.4 mph - N/A   Clear
3:55 AM 78.8 °F - 55.4 °F 44% 30.06 in 10.0 mi South 10.4 mph - N/A   Clear
4:15 AM 78.8 °F - 55.4 °F 44% 30.07 in 10.0 mi South 10.4 mph - N/A   Clear
4:35 AM 77.0 °F - 55.4 °F 47% 30.06 in 10.0 mi South 11.5 mph - N/A   Clear
4:55 AM 77.0 °F - 55.4 °F 47% 30.06 in 10.0 mi South 11.5 mph - N/A   Clear
5:15 AM 77.0 °F - 55.4 °F 47% 30.06 in 10.0 mi South 12.7 mph - N/A   Clear
5:35 AM 77.0 °F - 57.2 °F 50% 30.06 in 10.0 mi South 11.5 mph - N/A   Clear
5:55 AM 77.0 °F - 57.2 °F 50% 30.06 in 10.0 mi South 12.7 mph - N/A   Clear
6:15 AM 77.0 °F - 57.2 °F 50% 30.07 in 10.0 mi South 13.8 mph - N/A   Clear
6:35 AM 77.0 °F - 59.0 °F 54% 30.07 in 10.0 mi South 13.8 mph - N/A   Clear
6:55 AM 77.0 °F - 59.0 °F 54% 30.07 in 10.0 mi South 12.7 mph - N/A   Clear
7:15 AM 77.0 °F - 60.8 °F 57% 30.08 in 10.0 mi South 11.5 mph - N/A   Clear
7:35 AM 78.8 °F - 60.8 °F 54% 30.08 in 10.0 mi SSW 12.7 mph - N/A   Clear
7:55 AM 78.8 °F - 60.8 °F 54% 30.08 in 10.0 mi South 15.0 mph - N/A   Clear
8:15 AM 80.6 °F 81.5 °F 60.8 °F 51% 30.08 in 10.0 mi South 15.0 mph - N/A   Clear
8:35 AM 82.4 °F 82.9 °F 60.8 °F 48% 30.09 in 10.0 mi South 15.0 mph 19.6 mph N/A   Clear
8:55 AM 82.4 °F 82.9 °F 60.8 °F 48% 30.09 in 10.0 mi SSW 19.6 mph - N/A   Clear
9:15 AM 84.2 °F 84.4 °F 60.8 °F 45% 30.09 in 10.0 mi SSW 17.3 mph - N/A   Clear
9:35 AM 86.0 °F 85.4 °F 59.0 °F 40% 30.10 in 10.0 mi SSW 18.4 mph - N/A   Clear
9:55 AM 87.8 °F 87.1 °F 59.0 °F 38% 30.10 in 10.0 mi SSW 17.3 mph 21.9 mph N/A   Clear
10:15 AM 89.6 °F 88.9 °F 59.0 °F 36% 30.10 in 10.0 mi SSW 18.4 mph - N/A   Clear
10:35 AM 89.6 °F 88.9 °F 59.0 °F 36% 30.09 in 10.0 mi South 17.3 mph 23.0 mph N/A   Clear
10:55 AM 91.4 °F 90.7 °F 59.0 °F 34% 30.10 in 10.0 mi SSW 17.3 mph 23.0 mph N/A   Clear
11:15 AM 91.4 °F 89.9 °F 57.2 °F 31% 30.09 in 10.0 mi SSW 17.3 mph - N/A   Clear
11:35 AM 93.2 °F 91.3 °F 55.4 °F 28% 30.09 in 10.0 mi SSW 16.1 mph - N/A   Clear
11:55 AM 95.0 °F 93.0 °F 55.4 °F 26% 30.09 in 10.0 mi SSW 12.7 mph 20.7 mph N/A   Clear
12:15 PM 95.0 °F 93.0 °F 55.4 °F 26% 30.08 in 10.0 mi South 15.0 mph 23.0 mph N/A   Clear
12:35 PM 96.8 °F 95.1 °F 55.4 °F 25% 30.08 in 10.0 mi SSW 10.4 mph 19.6 mph N/A   Clear
12:55 PM 96.8 °F 94.4 °F 53.6 °F 23% 30.08 in 10.0 mi South 11.5 mph 17.3 mph N/A   Clear
1:15 PM 96.8 °F 94.4 °F 53.6 °F 23% 30.07 in 10.0 mi South 11.5 mph 17.3 mph N/A   Clear
1:35 PM 96.8 °F 94.4 °F 53.6 °F 23% 30.07 in 10.0 mi SE 15.0 mph 19.6 mph N/A   Clear
1:55 PM 98.6 °F - 51.8 °F 21% 30.05 in 10.0 mi SSE 12.7 mph 24.2 mph N/A   Scattered Clouds
2:15 PM 98.6 °F - 51.8 °F 21% 30.05 in 10.0 mi South 10.4 mph 20.7 mph N/A   Clear
2:35 PM 98.6 °F - 51.8 °F 21% 30.04 in 10.0 mi South 15.0 mph 23.0 mph N/A   Clear
2:55 PM 98.6 °F - 51.8 °F 21% 30.03 in 10.0 mi SSE 19.6 mph 24.2 mph N/A   Clear
3:15 PM 100.4 °F - 51.8 °F 20% 30.03 in 10.0 mi South 12.7 mph 20.7 mph N/A   Clear
3:35 PM 100.4 °F - 51.8 °F 20% 30.03 in 10.0 mi South 16.1 mph 21.9 mph N/A   Clear
3:55 PM 100.4 °F - 51.8 °F 20% 30.02 in 10.0 mi South 21.9 mph 25.3 mph N/A   Clear
4:15 PM 100.4 °F - 50.0 °F 18% 30.02 in 10.0 mi SSE 18.4 mph 25.3 mph N/A   Clear
4:35 PM 100.4 °F - 51.8 °F 20% 30.02 in 10.0 mi South 19.6 mph 24.2 mph N/A   Clear
4:55 PM 100.4 °F - 51.8 °F 20% 30.02 in 10.0 mi South 17.3 mph 26.5 mph N/A   Clear
5:15 PM 100.4 °F - 51.8 °F 20% 30.02 in 10.0 mi South 13.8 mph 25.3 mph N/A   Clear
5:35 PM 100.4 °F - 51.8 °F 20% 30.01 in 10.0 mi South 16.1 mph 24.2 mph N/A   Clear
5:55 PM 100.4 °F - 51.8 °F 20% 30.00 in 10.0 mi South 11.5 mph 21.9 mph N/A   Clear
6:15 PM 100.4 °F - 51.8 °F 20% 30.00 in 10.0 mi SSE 15.0 mph 19.6 mph N/A   Clear
6:35 PM 98.6 °F - 51.8 °F 21% 30.00 in 10.0 mi South 16.1 mph 19.6 mph N/A   Clear
6:55 PM 98.6 °F - 51.8 °F 21% 30.00 in 10.0 mi South 12.7 mph 21.9 mph N/A   Clear
7:15 PM 98.6 °F - 51.8 °F 21% 30.00 in 10.0 mi South 12.7 mph 18.4 mph N/A   Clear
7:35 PM 98.6 °F - 51.8 °F 21% 30.00 in 10.0 mi South 12.7 mph 19.6 mph N/A   Clear
7:55 PM 96.8 °F - 51.8 °F 22% 30.00 in 10.0 mi South 15.0 mph 18.4 mph N/A   Clear
8:15 PM 96.8 °F - 51.8 °F 22% 30.00 in 10.0 mi South 11.5 mph - N/A   Clear
8:35 PM 95.0 °F 92.7 °F 53.6 °F 25% 30.01 in 10.0 mi SSE 9.2 mph - N/A   Clear
8:55 PM 91.4 °F 89.1 °F 53.6 °F 28% 30.01 in 10.0 mi SSE 8.1 mph - N/A   Clear
9:15 PM 87.8 °F 85.7 °F 53.6 °F 31% 30.02 in 10.0 mi SSE 8.1 mph - N/A   Clear
9:35 PM 87.8 °F 85.7 °F 53.6 °F 31% 30.02 in 10.0 mi SSE 8.1 mph - N/A   Clear
9:55 PM 87.8 °F 85.7 °F 53.6 °F 31% 30.02 in 10.0 mi SSE 9.2 mph - N/A   Clear
10:15 PM 87.8 °F 85.7 °F 53.6 °F 31% 30.03 in 10.0 mi SSE 10.4 mph - N/A   Clear
10:35 PM 87.8 °F 85.7 °F 53.6 °F 31% 30.04 in 10.0 mi SSE 11.5 mph - N/A   Clear
10:55 PM 87.8 °F 86.1 °F 55.4 °F 33% 30.05 in 10.0 mi SSE 12.7 mph 17.3 mph N/A   Clear
11:15 PM 87.8 °F 86.1 °F 55.4 °F 33% 30.05 in 10.0 mi SSE 12.7 mph - N/A   Clear
11:35 PM 86.0 °F 84.5 °F 55.4 °F 35% 30.04 in 10.0 mi SSE 16.1 mph - N/A   Clear
11:55 PM 86.0 °F 85.4 °F 59.0 °F 40% 30.04 in 10.0 mi SSE 17.3 mph 23.0 mph N/A   Clear